TimeCST,TemperatureF,Dew PointF,Humidity,Sea Level PressureIn,VisibilityMPH,Wind Direction,Wind SpeedMPH,Gust SpeedMPH,PrecipitationIn,Events,Conditions,WindDirDegrees,DateUTC
12:35 AM,30.2,26.6,86,30.21,10.0,NNE,4.6,-,N/A,,Overcast,30,2012-11-04 05:35:00
12:54 AM,30.2,26.6,86,30.20,10.0,NE,4.6,-,N/A,,Overcast,40,2012-11-04 05:54:00
12:56 AM,30.0,27.0,88,30.27,10.0,NE,5.8,-,N/A,,Overcast,50,2012-11-04 05:56:00
1:04 AM,30.2,26.6,86,30.21,10.0,NNE,4.6,-,N/A,,Overcast,20,2012-11-04 06:04:00
1:38 AM,30.2,28.4,93,30.21,10.0,NE,3.5,-,N/A,,Overcast,40,2012-11-04 06:38:00
1:56 AM,30.0,27.0,88,30.27,10.0,NNE,5.8,-,N/A,,Overcast,20,2012-11-04 06:56:00
1:17 AM,30.2,26.6,86,30.21,10.0,North,3.5,-,N/A,,Overcast,350,2012-11-04 07:17:00
1:51 AM,30.2,26.6,86,30.20,10.0,North,4.6,-,N/A,,Overcast,10,2012-11-04 07:51:00
1:56 AM,30.0,27.0,88,30.26,10.0,North,5.8,-,N/A,,Overcast,10,2012-11-04 07:56:00
2:56 AM,30.0,27.0,88,30.26,10.0,North,3.5,-,N/A,,Overcast,360,2012-11-04 08:56:00
3:56 AM,30.0,27.0,88,30.24,9.0,North,3.5,-,N/A,,Overcast,10,2012-11-04 09:56:00
4:56 AM,30.0,27.0,88,30.25,9.0,North,4.6,-,N/A,,Overcast,10,2012-11-04 10:56:00
5:06 AM,30.2,26.6,86,30.18,9.0,NNE,4.6,-,N/A,,Overcast,30,2012-11-04 11:06:00
5:56 AM,30.0,28.0,92,30.23,8.0,Calm,Calm,-,N/A,,Overcast,0,2012-11-04 11:56:00
6:56 AM,28.9,28.0,96,30.22,8.0,Calm,Calm,-,N/A,,Overcast,0,2012-11-04 12:56:00
7:25 AM,30.2,28.4,93,30.15,6.0,East,5.8,-,N/A,,Overcast,80,2012-11-04 13:25:00
7:38 AM,30.2,28.4,93,30.16,4.0,East,3.5,-,N/A,,Overcast,80,2012-11-04 13:38:00
7:51 AM,30.2,28.4,93,30.16,1.8,East,4.6,-,N/A,,Overcast,80,2012-11-04 13:51:00
7:56 AM,30.0,28.9,96,30.22,1.0,East,3.5,-,N/A,,Overcast,90,2012-11-04 13:56:00
8:04 AM,30.2,28.4,93,30.16,0.5,East,4.6,-,N/A,Fog,Light Freezing Fog,80,2012-11-04 14:04:00
8:11 AM,30.2,28.4,93,30.15,0.2,East,4.6,-,N/A,Fog,Light Freezing Fog,90,2012-11-04 14:11:00
8:23 AM,30.2,28.4,93,30.16,0.5,East,4.6,-,N/A,Fog,Light Freezing Fog,90,2012-11-04 14:23:00
8:36 AM,30.2,28.4,93,30.16,1.5,Calm,Calm,-,N/A,,Overcast,0,2012-11-04 14:36:00
8:47 AM,30.2,28.4,93,30.16,2.5,East,3.5,-,N/A,,Overcast,90,2012-11-04 14:47:00
8:56 AM,30.0,28.9,96,30.22,2.5,Calm,Calm,-,N/A,,Overcast,0,2012-11-04 14:56:00
9:13 AM,30.2,28.4,93,30.16,3.0,SE,3.5,-,N/A,,Overcast,130,2012-11-04 15:13:00
9:56 AM,30.9,28.9,92,30.21,4.0,Calm,Calm,-,N/A,,Overcast,0,2012-11-04 15:56:00
10:27 AM,30.2,30.2,100,30.14,2.0,SSE,3.5,-,N/A,,Overcast,150,2012-11-04 16:27:00
10:34 AM,30.2,30.2,100,30.14,1.2,Calm,Calm,-,N/A,,Overcast,0,2012-11-04 16:34:00
10:56 AM,30.9,30.0,96,30.20,0.8,ESE,3.5,-,N/A,,Overcast,110,2012-11-04 16:56:00
11:09 AM,32.0,30.2,93,30.14,1.2,ESE,4.6,-,N/A,,Overcast,110,2012-11-04 17:09:00
11:41 AM,32.0,30.2,93,30.14,3.0,SE,4.6,-,N/A,,Overcast,130,2012-11-04 17:41:00
11:56 AM,32.0,30.9,96,30.19,2.5,SE,4.6,-,N/A,,Overcast,130,2012-11-04 17:56:00
12:19 PM,33.8,30.2,87,30.13,3.0,ESE,4.6,-,N/A,,Overcast,120,2012-11-04 18:19:00
12:56 PM,33.1,30.9,92,30.18,4.0,SSE,3.5,-,N/A,,Overcast,150,2012-11-04 18:56:00
1:44 PM,33.8,30.2,87,30.13,5.0,Calm,Calm,-,N/A,,Overcast,0,2012-11-04 19:44:00
1:56 PM,33.1,30.9,92,30.19,2.5,Calm,Calm,-,0.00,Snow,Light Snow,0,2012-11-04 19:56:00
2:08 PM,33.8,30.2,87,30.13,1.8,Calm,Calm,-,0.00,Snow,Light Snow,0,2012-11-04 20:08:00
2:40 PM,33.8,30.2,87,30.12,2.0,Calm,Calm,-,0.00,Snow,Light Snow,0,2012-11-04 20:40:00
2:54 PM,33.8,30.2,87,30.12,3.0,Calm,Calm,-,0.00,,Overcast,0,2012-11-04 20:54:00
2:56 PM,34.0,30.9,89,30.18,3.0,Calm,Calm,-,0.00,Snow,Light Snow,0,2012-11-04 20:56:00
3:21 PM,33.8,30.2,87,30.12,2.5,East,4.6,-,0.00,Snow,Light Snow,80,2012-11-04 21:21:00
3:47 PM,33.8,32.0,93,30.13,3.0,ENE,3.5,-,0.00,Snow,Light Snow,60,2012-11-04 21:47:00
3:56 PM,34.0,30.9,89,30.19,4.0,ENE,4.6,-,0.00,Snow,Light Snow,70,2012-11-04 21:56:00
4:26 PM,33.8,32.0,93,30.14,4.0,ENE,4.6,-,0.00,,Overcast,60,2012-11-04 22:26:00
4:42 PM,33.8,32.0,93,30.14,2.5,ENE,4.6,-,0.00,Snow,Light Snow,60,2012-11-04 22:42:00
4:56 PM,34.0,30.9,89,30.20,3.0,ENE,3.5,-,0.00,Snow,Light Snow,60,2012-11-04 22:56:00
5:04 PM,33.8,30.2,87,30.14,2.5,ENE,3.5,-,0.00,Snow,Light Snow,70,2012-11-04 23:04:00
5:14 PM,33.8,32.0,93,30.14,2.0,ENE,3.5,-,0.01,Snow,Light Snow,60,2012-11-04 23:14:00
5:32 PM,33.8,30.2,87,30.14,3.0,ENE,4.6,-,0.01,Snow,Light Snow,60,2012-11-04 23:32:00
5:39 PM,33.8,30.2,87,30.14,2.5,ENE,4.6,-,0.01,Snow,Light Snow,60,2012-11-04 23:39:00
5:47 PM,33.8,32.0,93,30.15,3.0,ENE,4.6,-,0.01,Snow,Light Snow,60,2012-11-04 23:47:00
5:56 PM,33.1,30.9,92,30.21,3.0,ENE,4.6,-,0.01,Snow,Light Snow,60,2012-11-04 23:56:00
6:04 PM,33.8,30.2,87,30.15,2.5,ENE,4.6,-,0.00,Snow,Light Snow,70,2012-11-05 00:04:00
6:22 PM,33.8,30.2,87,30.16,3.0,ENE,5.8,-,0.00,Snow,Light Snow,70,2012-11-05 00:22:00
6:56 PM,33.1,30.9,92,30.24,4.0,ENE,4.6,-,0.00,Snow,Light Snow,60,2012-11-05 00:56:00
7:10 PM,33.8,30.2,87,30.18,2.0,ENE,5.8,-,0.00,Snow,Light Snow,60,2012-11-05 01:10:00
7:36 PM,33.8,30.2,87,30.18,3.0,ENE,5.8,-,0.00,Snow,Light Snow,60,2012-11-05 01:36:00
7:56 PM,33.1,30.9,92,30.25,4.0,NE,3.5,-,0.00,,Overcast,50,2012-11-05 01:56:00
8:56 PM,33.1,30.9,92,30.26,3.0,North,3.5,-,0.00,Snow,Light Snow,350,2012-11-05 02:56:00
9:32 PM,33.8,30.2,87,30.21,5.0,Calm,Calm,-,0.00,,Overcast,0,2012-11-05 03:32:00
9:56 PM,33.1,30.9,92,30.27,4.0,North,3.5,-,0.00,,Overcast,10,2012-11-05 03:56:00
10:56 PM,33.1,30.9,92,30.25,4.0,NE,3.5,-,N/A,,Overcast,40,2012-11-05 04:56:00